TimeCST,TemperatureF,Dew PointF,Humidity,Sea Level PressureIn,VisibilityMPH,Wind Direction,Wind SpeedMPH,Gust SpeedMPH,PrecipitationIn,Events,Conditions,WindDirDegrees,DateUTC
12:15 AM,-7.6,-13.0,77,30.33,10.0,Calm,Calm,-,N/A,,Clear,0,2013-02-21 06:15:00
12:35 AM,-5.8,-9.4,84,30.34,10.0,Calm,Calm,-,N/A,,Clear,0,2013-02-21 06:35:00
12:55 AM,-7.6,-13.0,77,30.35,10.0,Calm,Calm,-,N/A,,Clear,0,2013-02-21 06:55:00
1:15 AM,-9.4,-14.8,77,30.35,10.0,Calm,Calm,-,N/A,,Clear,0,2013-02-21 07:15:00
1:35 AM,-7.6,-13.0,77,30.35,10.0,Calm,Calm,-,N/A,,Clear,0,2013-02-21 07:35:00
1:55 AM,-11.2,-16.6,77,30.35,10.0,Calm,Calm,-,N/A,,Clear,0,2013-02-21 07:55:00
2:15 AM,-9.4,-14.8,77,30.36,10.0,Calm,Calm,-,N/A,,Clear,0,2013-02-21 08:15:00
2:35 AM,-9.4,-14.8,77,30.36,10.0,Calm,Calm,-,N/A,,Clear,0,2013-02-21 08:35:00
2:55 AM,-13.0,-16.6,84,30.35,10.0,Calm,Calm,-,N/A,,Clear,0,2013-02-21 08:55:00
3:15 AM,-13.0,-18.4,77,30.37,10.0,Calm,Calm,-,N/A,,Clear,0,2013-02-21 09:15:00
3:35 AM,-11.2,-16.6,77,30.37,10.0,Calm,Calm,-,N/A,,Clear,0,2013-02-21 09:35:00
3:55 AM,-11.2,-16.6,77,30.37,10.0,Calm,Calm,-,N/A,,Clear,0,2013-02-21 09:55:00
4:15 AM,-13.0,-16.6,84,30.38,10.0,Calm,Calm,-,N/A,,Clear,0,2013-02-21 10:15:00
4:35 AM,-13.0,-18.4,77,30.39,10.0,Calm,Calm,-,N/A,,Clear,0,2013-02-21 10:35:00
4:55 AM,-14.8,-22.0,70,30.40,10.0,Calm,Calm,-,N/A,,Clear,0,2013-02-21 10:55:00
5:15 AM,-13.0,-16.6,84,30.40,10.0,Calm,Calm,-,N/A,,Clear,0,2013-02-21 11:15:00
5:55 AM,-4.0,-7.6,85,30.40,10.0,NNE,3.5,-,N/A,,Overcast,20,2013-02-21 11:55:00
6:15 AM,-0.4,-4.0,85,30.40,10.0,Calm,Calm,-,N/A,,Overcast,0,2013-02-21 12:15:00
6:35 AM,-0.4,-4.0,85,30.39,10.0,NNE,3.5,-,N/A,,Overcast,30,2013-02-21 12:35:00
6:55 AM,1.4,-2.2,85,30.36,10.0,NNE,6.9,-,N/A,,Overcast,30,2013-02-21 12:55:00
7:15 AM,1.4,-0.4,92,30.33,10.0,NNE,5.8,-,N/A,,Overcast,30,2013-02-21 13:15:00
7:35 AM,3.2,-0.4,85,30.32,10.0,NE,8.1,-,N/A,,Overcast,50,2013-02-21 13:35:00
7:55 AM,3.2,-0.4,85,30.29,10.0,NE,8.1,-,N/A,,Overcast,40,2013-02-21 13:55:00
8:15 AM,5.0,1.4,85,30.34,10.0,Calm,Calm,-,N/A,,Overcast,0,2013-02-21 14:15:00
8:35 AM,5.0,3.2,92,30.39,3.0,Calm,Calm,-,N/A,Snow,Light Snow,0,2013-02-21 14:35:00
8:55 AM,5.0,3.2,92,30.41,4.0,Calm,Calm,-,N/A,Snow,Light Snow,0,2013-02-21 14:55:00
9:15 AM,6.8,3.2,85,30.41,7.0,Calm,Calm,-,N/A,,Overcast,0,2013-02-21 15:15:00
9:35 AM,8.6,5.0,85,30.40,4.0,Calm,Calm,-,N/A,Snow,Light Snow,0,2013-02-21 15:35:00
9:55 AM,10.4,6.8,85,30.39,10.0,Calm,Calm,-,N/A,Snow,Light Snow,0,2013-02-21 15:55:00
10:15 AM,12.2,6.8,79,30.38,10.0,North,3.5,-,N/A,Snow,Light Snow,10,2013-02-21 16:15:00
10:35 AM,14.0,6.8,73,30.38,10.0,NE,4.6,-,N/A,,Clear,50,2013-02-21 16:35:00
10:55 AM,14.0,6.8,73,30.36,10.0,North,3.5,-,N/A,,Clear,350,2013-02-21 16:55:00
11:15 AM,17.6,6.8,63,30.35,10.0,Calm,Calm,-,N/A,,Clear,0,2013-02-21 17:15:00
11:35 AM,17.6,8.6,68,30.36,10.0,Calm,Calm,-,N/A,,Clear,0,2013-02-21 17:35:00
11:55 AM,19.4,8.6,63,30.36,10.0,Calm,Calm,-,N/A,,Clear,0,2013-02-21 17:55:00
12:15 PM,19.4,8.6,63,30.34,10.0,Calm,Calm,-,N/A,,Clear,0,2013-02-21 18:15:00
12:35 PM,21.2,8.6,58,30.33,10.0,NE,3.5,-,N/A,,Clear,50,2013-02-21 18:35:00
12:55 PM,23.0,10.4,59,30.31,10.0,NE,3.5,-,N/A,,Clear,50,2013-02-21 18:55:00
1:15 PM,24.8,10.4,54,30.30,10.0,East,4.6,-,N/A,,Clear,80,2013-02-21 19:15:00
1:35 PM,26.6,10.4,51,30.29,10.0,East,3.5,-,N/A,,Clear,80,2013-02-21 19:35:00
1:55 PM,26.6,12.2,55,30.29,10.0,East,5.8,-,N/A,,Clear,80,2013-02-21 19:55:00
2:15 PM,26.6,12.2,55,30.27,10.0,NE,3.5,-,N/A,,Clear,40,2013-02-21 20:15:00
2:35 PM,26.6,12.2,55,30.25,10.0,North,9.2,-,N/A,,Clear,10,2013-02-21 20:35:00
2:55 PM,28.4,12.2,51,30.25,10.0,NE,8.1,-,N/A,,Clear,40,2013-02-21 20:55:00
3:15 PM,28.4,12.2,51,30.25,10.0,ENE,6.9,-,N/A,,Clear,70,2013-02-21 21:15:00
3:35 PM,28.4,12.2,51,30.24,10.0,NNE,4.6,-,N/A,,Clear,20,2013-02-21 21:35:00
3:55 PM,28.4,14.0,55,30.25,10.0,ENE,4.6,-,N/A,,Clear,60,2013-02-21 21:55:00
4:15 PM,26.6,12.2,55,30.25,10.0,NNE,5.8,-,N/A,,Clear,30,2013-02-21 22:15:00
4:35 PM,26.6,14.0,59,30.25,10.0,NNE,6.9,-,N/A,,Clear,20,2013-02-21 22:35:00
4:55 PM,26.6,14.0,59,30.25,10.0,NE,5.8,-,N/A,,Clear,40,2013-02-21 22:55:00
5:15 PM,26.6,14.0,59,30.23,10.0,NE,6.9,-,N/A,,Clear,50,2013-02-21 23:15:00
5:35 PM,24.8,14.0,64,30.23,10.0,NE,5.8,-,N/A,,Clear,50,2013-02-21 23:35:00
5:55 PM,24.8,14.0,64,30.22,10.0,NE,5.8,-,N/A,,Clear,40,2013-02-21 23:55:00
6:15 PM,23.0,14.0,68,30.23,10.0,NE,4.6,-,N/A,,Clear,50,2013-02-22 00:15:00
6:35 PM,23.0,14.0,68,30.21,10.0,NE,5.8,-,N/A,,Clear,40,2013-02-22 00:35:00
6:55 PM,23.0,14.0,68,30.20,10.0,NE,5.8,-,N/A,,Clear,50,2013-02-22 00:55:00
7:15 PM,23.0,14.0,68,30.19,10.0,ENE,6.9,-,N/A,,Clear,60,2013-02-22 01:15:00
7:35 PM,23.0,14.0,68,30.19,10.0,ENE,9.2,-,N/A,,Clear,70,2013-02-22 01:35:00
7:55 PM,23.0,14.0,68,30.18,10.0,ENE,10.4,-,N/A,,Clear,70,2013-02-22 01:55:00
8:15 PM,23.0,14.0,68,30.18,10.0,East,9.2,-,N/A,,Clear,80,2013-02-22 02:15:00
8:35 PM,21.2,14.0,74,30.19,10.0,East,11.5,17.3,N/A,,Scattered Clouds,80,2013-02-22 02:35:00
8:55 PM,21.2,15.8,80,30.17,10.0,ENE,8.1,-,N/A,,Overcast,70,2013-02-22 02:55:00
9:15 PM,21.2,17.6,86,30.16,10.0,ENE,11.5,17.3,N/A,,Overcast,70,2013-02-22 03:15:00
9:35 PM,21.2,17.6,86,30.14,10.0,ENE,15.0,18.4,N/A,,Overcast,70,2013-02-22 03:35:00
9:55 PM,21.2,17.6,86,30.14,10.0,East,10.4,-,N/A,,Overcast,80,2013-02-22 03:55:00
10:15 PM,21.2,17.6,86,30.14,10.0,East,13.8,20.7,N/A,,Overcast,80,2013-02-22 04:15:00
10:35 PM,21.2,17.6,86,30.13,10.0,East,15.0,19.6,N/A,,Overcast,80,2013-02-22 04:35:00
10:55 PM,19.4,17.6,93,30.11,10.0,East,9.2,17.3,N/A,,Overcast,90,2013-02-22 04:55:00
11:15 PM,19.4,17.6,93,30.11,10.0,East,9.2,17.3,N/A,,Overcast,80,2013-02-22 05:15:00
11:35 PM,19.4,17.6,93,30.10,10.0,East,10.4,18.4,N/A,,Overcast,80,2013-02-22 05:35:00
11:55 PM,19.4,17.6,93,30.10,10.0,East,8.1,-,N/A,,Overcast,90,2013-02-22 05:55:00